Regional Weather Roundup
Issued by NWS Green Bay, WI

Home | Current Version | Previous Version | Text Only | Print | Product List | Glossary Off
Versions: 1 2 3 4 5 6 7 8 9 10 11 12 13 14 15 16 17 18 19 20 21 22 23 24 25 26 27 28 29 30 31 32 33 34 35 36 37 38 39 40 41 42 43 44 45 46 47 48 49 50

000
ASUS43 KGRB 092011
RWRGRB

NORTH-CENTRAL AND NORTHEAST WISCONSIN REGIONAL WEATHER ROUNDUP
NATIONAL WEATHER SERVICE GREEN BAY WI
200 PM CST FRI DEC 09 2016

WIZ005-009-010>012-018-019-092100-
NORTH CENTRAL WISCONSIN

CITY           SKY/WX    TMP DP  RH WIND       PRES   REMARKS
IRONWOOD       FLURRIES  15   8  73 W12       30.40S WCI   2
MANITOWISH WTR CLOUDY    13   5  69 W8        30.37S WCI   2
ARBOR VITAE    CLOUDY    17   8  69 NW8       30.37S WCI   6
EAGLE RIVER    CLOUDY    16   6  64 W14       30.34S WCI   1
LAND O LAKES   CLOUDY    17   9  71 W8        30.36R WCI   6
RHINELANDER    FLURRIES  16   7  67 NW8       30.37S WCI   5
PHILLIPS       CLOUDY    15   8  71 W3        30.39S
ANTIGO         CLOUDY    18   8  66 W13G21    30.37S WCI   4
TOMAHAWK       CLOUDY    16   6  64 W5        30.39F WCI   9
MERRILL        CLOUDY    19   6  59 NW12G17   30.41S WCI   6
$$

WIZ013-073-092100-
NORTHEAST WISCONSIN

CITY           SKY/WX    TMP DP  RH WIND       PRES   REMARKS
IRON MOUNTAIN  CLOUDY    21   6  52 NW14      30.34R WCI   8
MARINETTE      CLOUDY    25   9  50 NW7       30.39S
OCONTO         CLOUDY    24   8  50 W12       30.39S
$$

WIZ017-030-035>037-045-092100-
CENTRAL WISCONSIN

CITY           SKY/WX    TMP DP  RH WIND       PRES   REMARKS
MEDFORD        CLOUDY    17   8  65 W8        30.39F WCI   7
WAUSAU         MOSUNNY   19   7  59 W10       30.40F WCI   7
MOSINEE        MOSUNNY   18   9  68 NW12G18   30.42F WCI   5
MARSHFIELD     SUNNY     18   8  65 W9        30.42F WCI   7
WISC RAPIDS    MOSUNNY   21   9  59 NW9       30.45F
STEVENS POINT  CLOUDY    18   7  62 W9        30.44S WCI   7
WAUPACA        SUNNY     26  10  51 W9        30.44F
SHAWANO        SUNNY     24   8  51 NW9       30.42S
CLINTONVILLE   SUNNY     25   7  46 NW13G21   30.42S
WAUTOMA        SUNNY     22  10  60 NW14      30.46F WCI   9
$$

WIZ038-039-048-051-092100-
FOX VALLEY

CITY           SKY/WX    TMP DP  RH WIND       PRES   REMARKS
NWS GREEN BAY  MOSUNNY   26  11  52 NW16G24   30.41S
APPLETON       MOSUNNY   25   7  46 W17G23    30.40F
OSHKOSH        SUNNY     24   9  52 W12G21    30.43S
FOND DU LAC    SUNNY     24   9  52 W13       30.44F
$$

WIZ022-050-052-092100-
EAST CENTRAL WISCONSIN

CITY           SKY/WX    TMP DP  RH WIND       PRES   REMARKS
EPHRAIM        CLOUDY    25  10  53 NW6       30.35S
WASHINGTON ISL CLOUDY    26  12  55 NW8       30.35S
STURGEON BAY   CLOUDY    25  10  53 W12       30.38S
MANITOWOC      PTSUNNY   25  10  53 W14G22    30.42S
SHEBOYGAN      PTSUNNY   24   8  50 NW20G25   30.43S WCI  10
$$

LMZ563-521-522-541>543-092100-
LAKESHORE

STATION/POSITION TIME  TEMP    WIND        PRES    VSBY  WAVE
                       AIR SEA DIR/SP/G                  HT/PER
                 (UTC) (F)     (DEG/KT/KT) (MB)    (MI)  (FT/S)
SHEBOYGAN LKSHOR 2000   24     280/ 13/ 17 1031.2R
KEWAUNEE LKSHORE 1948   24     310/  8/ 12 1028.6F
ALGOMA MARINA    1851          330/ 13/ 15   N/A
NORTHPORT PIER   1948   27     300/ 11/ 17 1027.8F
SISTER BAY LKSHO 1950   27     320/ 16/ 18   N/A
CHAMBERS ISLAND  1940   26     260/  5/ 11 1027.8F
MENOMINEE LKSHOR 1948   25     260/  9/ 13 1027.7F
$$




USA.gov is the U.S. government's official web portal to all federal, state and local government web resources and services.